Preview of NWS' New Version of Forecast
This preview is not operational and should not be used for support decisions.
Latest weather observations around

Frenchville, Northern Aroostook Regional Airport (KFVE)

Using English Units (Switch to International System of Units)
Date/ Time (EST) Wind (mph) Vis. (mi) Weather Sky Cond. Temp (°F) Rel. Humidity Wind Chill (°F) Heat Index (°F) Pressure Precip. (in)
Air Dwpt 6 hour Altimeter (inHg) Sea level (inHg) 1 hr 3 hr 6 hr
Max Min
Jan 21 22:53 NNW 28 3 Light Snow OVC030 4 -5     65% -20   29.68 29.75 0    
Jan 21 22:49 NNW 20 3 Light Snow OVC030 3 -6     65% -18   29.68   0    
Jan 21 22:36 NNW 18 2.5 Light Snow OVC029 4 -4     69% -16   29.68   0    
Jan 21 22:13 NNW 21 4 Haze OVC031 5 -5     62% -16   29.66   0    
Jan 21 21:53 NNW 21 4 Light Snow FEW024 OVC029 4 -5     65% -17   29.66 29.72 0 0  
Jan 21 21:43 NNW 16 7 Cloudy BKN029 OVC080 4 -5     65% -15   29.65        
Jan 21 20:53 NNW 17 8 Cloudy OVC070 4 -5     65% -16   29.64 29.71 0    
Jan 21 19:53 NNW 18 9 Cloudy OVC060 4 -5     65% -16   29.63 29.69      
Jan 21 18:53 NNW 17 7 Cloudy OVC060 4 -5     65% -16   29.62 29.68 0   0
Jan 21 17:53 NNW 21 8 Light Snow OVC060 4 -5     65% -17   29.6 29.66 0    
Jan 21 16:53 NNW 21 9 Cloudy and Windy OVC060 4 -6     63% -17   29.57 29.64 0    
Jan 21 15:53 NNW 20 7 Cloudy and Windy OVC055 4 -6     63% -17   29.54 29.6 0 0  
Jan 21 14:53   7 Unknown Precipitation FEW025 OVC050 4 -6     63%     29.51 29.57 0    
Jan 21 13:53 NNW 24 7 Unknown Precipitation SCT025 OVC050 4 -6     63% -19   29.5 29.56 0    
Jan 21 12:53 NNW 21 4 Light Snow FEW024 BKN049 OVC075 4 -7     60% -17   29.48 29.54 0   0
Jan 21 11:53 NNW 16 4 Light Snow FEW022 BKN049 OVC055 4 -6     63% -15   29.48 29.54 0    
Jan 21 10:53 NW 21 5 Light Snow OVC050 3 -6     65% -18   29.46 29.52 0    
Jan 21 10:10 NNW 21 3 Light Snow FEW029 BKN035 OVC046 3 -6     65% -18   29.44   0    
Jan 21 09:59   2 Light Snow BKN027 OVC037 2 -7     65%     29.44   0    
Jan 21 09:53 NNW 22 1.5 Light Snow BKN023 OVC031 2 -6     69% -20   29.44 29.5 0 0  
Jan 21 09:42 NNW 21 1 Light Snow VV019 2 -6     69% -20   29.43   0    
Jan 21 09:14 NNW 20 0.75 Light Snow VV018 2 -6     69% -19   29.42   0    
Jan 21 08:53 N 20 1 Light Snow VV019 2 -6     69% -19   29.4 29.46 0    
Jan 21 08:13 NNW 24 0.75 Light Snow VV018 3 -5     68% -20   29.39   0    
Jan 21 07:53 NNW 25 1.25 Light Snow OVC021 3 -5     68% -20   29.39 29.44 0    
Jan 21 07:37 NNW 22 1.25 Light Snow OVC027 3 -4     72% -19   29.38   0    
Jan 21 07:17 NNW 24 1.25 Light Snow OVC037 4 -4     69% -19   29.36   0    
Jan 21 07:06 NNW 22 1.5 Light Snow OVC039 4 -4     69% -18   29.36   0    
Jan 21 06:53 NNW 23 2.5 Light Snow OVC040 5 -3     69% -17   29.36 29.41 0   0
Jan 21 06:39 NNW 22 3 Light Snow OVC040 5 -3     69% -16   29.36   0    
Jan 21 05:53 NNW 23 2 Light Snow OVC045 5 -2     72% -17   29.34 29.4 0    
Jan 21 04:53 NNW 21 2 Light Snow OVC034 6 -1     72% -14   29.32 29.37 0    
Jan 21 04:40 NNW 23 2 Light Snow OVC038 6 -1     72% -15   29.32   0    
Jan 21 04:30 NNW 21 1.75 Light Snow OVC042 7 -1     69% -13   29.33   0    
Jan 21 03:53 NNW 22 1.25 Light Snow OVC037 7 0     72% -14   29.32 29.37 0 0  
Jan 21 03:49 NNW 21 1.25 Light Snow OVC035 7 1     78% -13   29.32   0    
Jan 21 03:39 NW 21 1 Light Snow OVC029 8 1     72% -12   29.32   0    
Jan 21 03:20 NNW 16 0.75 Light Snow BKN021 OVC026 8 2     76% -10   29.33   0    
Jan 21 03:12 NW 15 1 Light Snow OVC023 8 2     76% -9   29.34   0    
Jan 21 03:04 NW 14 1.5 Light Snow OVC025 9 2     73% -7   29.34   0    
Jan 21 02:53 NNW 17 2 Light Snow OVC027 10 2     69% -8   29.33 29.38 0    
Jan 21 02:42 NNW 17 2 Light Snow BKN027 BKN040 OVC048 10 3     73% -8   29.32   0    
Jan 21 02:33 NNW 20 1.75 Light Snow BKN025 OVC048 10 3     73% -9   29.32   0    
Jan 21 02:18 NNW 17 1 Light Snow OVC021 10 4     76% -8   29.3   0    
Jan 21 02:09 NNW 16 1.5 Light Snow OVC025 11 4     73% -6   29.3   0    
Jan 21 01:53 N 18 2.5 Light Snow OVC027 10 4     76% -8   29.3 29.36 0    
Jan 21 01:41 N 18 2 Light Snow OVC029 10 4     76% -8   29.3   0    
Jan 21 01:32 N 16 1.75 Light Snow OVC031 10 3     73% -7   29.3   0    
Jan 21 00:53 N 17 1 Light Snow VV016 10 4     76% -8   29.32 29.38 0   0
Jan 21 00:49 N 16 0.75 Light Snow VV016 10 3     72% -7   29.33   0    
Jan 21 00:25 N 18 0.5 Snow VV013 10 4     76% -8   29.32   0    
Jan 21 00:17 N 14 0.5 Snow VV015 10 4     76% -6   29.33   0    
Jan 20 23:53 N 15 1 Light Snow VV019 10 3     73% -7   29.33 29.39 0    
Jan 20 23:45 N 15 1 Light Snow VV019 10 3     73% -7   29.34   0    
Jan 20 22:53 N 15 0.75 Light Snow VV017 10 3     73% -7   29.35 29.41 0    
Jan 20 22:43 N 18 1 Light Snow VV018 10 3     73% -8   29.34   0    
Jan 20 21:53 N 16 0.5 Snow VV015 10 3     73% -7   29.35 29.41 0 0  
Jan 20 21:45 N 13 0.75 Light Snow VV016 10 3     73% -5   29.36   0    
Jan 20 21:38 N 15 1 Light Snow VV017 10 3     73% -7   29.36   0    
Jan 20 21:22 N 11 0.75 Light Snow VV017 10 3     73% -4   29.37   0    
Jan 20 21:05   1 Light Snow VV015 10 4     76%     29.37   0    
Jan 20 20:53   0.75 Light Snow VV011 10 4     76%     29.37 29.43 0    
Jan 20 20:39   0.25 Heavy Snow VV006 10 5     80%     29.37   0    
Jan 20 20:23   0.25 Heavy Snow VV005 10 4     76%     29.38   0    
Jan 20 19:53   0.25 Heavy Snow VV004 11 5     76%     29.4 29.47 0    
Jan 20 19:42 N 11 0.25 Heavy Snow VV004 11 6     80% -3   29.41   0    
Jan 20 19:30   0.25 Heavy Snow VV005 13 7     77%     29.42   0    
Jan 20 18:53   0.25 Heavy Snow VV006 13 7     77%     29.43 29.49 0   0
Jan 20 18:42   0.25 Heavy Snow VV006 13 7     77%     29.42   0    
Jan 20 18:22 NNE 20 0.25 Heavy Snow VV005 13 6     74% -5       0    
Jan 20 18:04 NNE 18 0.25 Heavy Snow VV004 12 6     77% -6   29.45   0    
Jan 20 17:53 NNE 17 0.25 Heavy Snow VV005 12 6     77% -5   29.45 29.52 0    
Jan 20 17:09 NNE 20 0.25 Heavy Snow VV005 11 5     76% -8   29.47   0    
Jan 20 16:53 NNE 18 0.25 Heavy Snow VV006 11 4     73% -7   29.5 29.57 0    
Jan 20 16:44 NNE 18 0.25 Heavy Snow VV006 11 4     73% -7   29.51   0    
Jan 20 16:11 NNE 15 0.25 Heavy Snow VV005 10 3     73% -7   29.53   0    
Jan 20 15:53 NE 20 0.25 Heavy Snow VV004 9 3     76% -10   29.54 29.61 0 0  
Jan 20 14:53   0.25 Heavy Snow VV004 8 1     72%     29.59 29.66 0    
Jan 20 14:49   0.25 Heavy Snow VV004 9 1     72%     29.6   0    
Jan 20 14:24 NNE 15 0.25 Heavy Snow VV005 4 -3     73% -14   29.65   0    
Jan 20 14:08 NNE 16 0.25 Heavy Snow VV006 3 -4     72% -16   29.68   0    
Jan 20 13:53 NNE 15 0.25 Heavy Snow VV005 2 -5     72% -17   29.7 29.78 0    
Jan 20 12:53 NNE 11 0.25 Heavy Snow VV007 0 -7     72% -17   29.79 29.87 0   0
Jan 20 12:23 NE 10 0.25 Heavy Snow VV009 0 -8     68% -16   29.82   0    
Jan 20 11:53 NE 13 0.75 Light Snow VV010 -1 -9     68% -19   29.88 29.96 0    
Jan 20 11:00 NNE 9 0.5 Snow VV006 -4 -11     71% -20   29.96   0    
Jan 20 10:53 NNE 8 0.5 Snow VV005 -4 -12     68% -19   29.97 30.06 0    
Jan 20 10:51 NNE 9 0.5 Snow VV005 -4 -11     70% -20   29.98   0    
Jan 20 10:27 NNE 10 0.5 Snow VV008 -5 -12     72% -22   30   0    
Jan 20 10:17 NNE 10 0.75 Light Snow VV010 -4 -12     68% -21   30   0    
Jan 20 09:53 NE 15 1 Light Snow VV013 -5 -13     68% -26   30.02 30.11 0 0  
Jan 20 09:43 NE 11 1.25 Light Snow OVC016 -5 -13     68% -23   30.02   0    
Jan 20 09:35 ENE 10 1.75 Light Snow OVC020 -5 -13     68% -22   30.02   0    
Jan 20 09:15   2.5 Light Snow BKN028 OVC036 -6 -14     67%     30.04   0    
Jan 20 08:53 ENE 8 3 Light Snow OVC032 -7 -15     68% -23   30.07 30.16 0    
Jan 20 08:43 ENE 11 3 Light Snow BKN030 OVC041 -7 -15     68% -26   30.08   0    
Jan 20 08:27 NE 9 2 Light Snow OVC022 -7 -16     64% -24   30.11   0    
Jan 20 08:23 NE 10 1.5 Light Snow OVC018 -8 -16     67% -26   30.11   0    
Jan 20 08:10 NE 8 1.5 Light Snow OVC014 -8 -16     67% -24   30.12   0    
Jan 20 08:02 ENE 7 1.25 Light Snow OVC012 -8 -16     67% -23   30.13   0    
Jan 20 07:53 NE 6 0.75 Light Snow VV011 -8 -16     67% -21   30.13 30.22 0    
Jan 20 07:16 NNE 6 0.75 Light Snow VV013 -9 -17     67% -22   30.16   0    
Jan 20 06:53 N 5 1 Light Snow VV017 -9 -17     67% -21   30.17 30.26 0   0
Jan 20 06:50 N 5 1.25 Light Snow OVC016 -9 -17     70% -21   30.17   0    
Jan 20 06:37 NE 7 1.25 Light Snow OVC014 -9 -17     67% -24   30.16   0    
Jan 20 06:18 NE 8 0.75 Light Snow VV013 -9 -18     64% -25   30.18   0    
Jan 20 06:04 NE 8 1.25 Light Snow OVC019 -9 -18     64% -25   30.18   0    
Jan 20 05:53 NE 7 1.5 Light Snow OVC023 -9 -18     64% -24   30.18 30.27 0    
Jan 20 05:50 ENE 8 1.5 Light Snow OVC023 -9 -18     64% -26   30.19   0    
Jan 20 05:37 ENE 5 1.75 Light Snow OVC023 -10 -17     70% -22   30.2   0    
Jan 20 05:26 5 1.5 Light Snow OVC024 -10 -18     67% -22   30.19   0    
Jan 20 05:10 NE 7 1.75 Light Snow OVC028 -10 -19     64% -25   30.19   0    
Jan 20 04:53 NE 8 2.5 Light Snow OVC032 -10 -18     67% -26   30.19 30.28 0    
Jan 20 04:40 NE 9 2 Light Snow OVC030 -10 -19     64% -27       0    
Jan 20 04:34 NE 7 1.75 Light Snow OVC028 -10 -19     64% -25   30.2   0    
Jan 20 04:28 ENE 6 2 Light Snow OVC030 -10 -19     64% -23   30.2   0    
Jan 20 04:09 NE 3 2.5 Light Snow OVC027 -11 -19     67% -20   30.22   0    
Jan 20 03:53 NNE 6 1.75 Light Snow OVC024 -11 -19     67% -25   30.22 30.32 0 0  
Jan 20 03:43 NNE 6 1.75 Light Snow OVC024 -10 -19     64% -23   30.23   0    
Jan 20 03:32 ENE 8 2.5 Light Snow OVC028 -10 -20     60% -26   30.24   0    
Jan 20 02:53 ENE 6 10 Cloudy BKN060 BKN075 OVC090 -10 -20     60% -23   30.27 30.36      
Jan 20 01:53 3 10 Cloudy OVC060 -11 -20     63% -20     30.37      
Jan 20 00:53 NNE 6 10 Cloudy OVC060 -12 -21     63% -26   30.29 30.38      
Jan 19 23:53 NNE 5 10 Clear CLR -12 -21     63% -24   30.31 30.41      
Jan 19 22:53 N 3 10 Cloudy OVC095 -12 -21     63% -21   30.33 30.43      
Jan 19 21:53 N 5 10 Cloudy OVC110 -11 -22     57% -23     30.42      
Jan 19 20:53 N 5 10 Cloudy OVC100 -11 -22     57% -23     30.44      
Jan 19 19:53 N 6 10 Cloudy OVC110 -11 -22     57% -25   30.35 30.44      
Jan 19 18:53 NNW 7 10 Mostly Cloudy BKN110 -10 -22     54% -25   30.35 30.45      
Jan 19 17:53 NNW 9 10 Clear CLR -10 -22     54% -27   30.34 30.43      
Jan 19 16:53 N 9 10 Clear CLR -10 -23     51% -27   30.32 30.42      
Jan 19 15:53 NNW 11 10 Mostly Clear FEW120 -9 -23     49% -28   30.3 30.39      
Jan 19 14:53 NNW 11 10 Clear CLR -8 -24     44% -27   30.28 30.36      
Jan 19 13:53 NNW 13 10 Clear CLR -8 -24     44% -28   30.27 30.35      
Jan 19 12:53 NNW 14 10 Clear CLR -8 -24     44% -29   30.29 30.37      
Jan 19 11:53 NNW 14 10 Clear CLR -9 -24     47% -30   30.3 30.38      
Jan 19 10:53 NNW 13 10 Clear CLR -11 -24     51% -32   30.31 30.38      
Jan 19 09:53 NNW 17 10 Clear CLR -12 -25     51% -36   30.3 30.37      
Jan 19 08:53 NNW 17 10 Clear CLR -13 -25     54% -37   30.27 30.34      
Jan 19 07:53 NW 10 10 Clear CLR -14 -24     60% -34   30.25 30.32      
Jan 19 06:53 NW 11 10 Clear CLR -13 -23     60% -33   30.23 30.29     0
Jan 19 05:53 NW 13 10 Clear CLR -11 -22     57% -32   30.19 30.25      
Jan 19 04:53 NW 14 10 Clear CLR -9 -21     55% -30   30.14 30.21      
Jan 19 03:53 NW 15 10 Clear CLR -6 -20     50% -27   30.12 30.19 0 0  
Jan 19 02:53 NW 15 9 Light Snow CLR -3 -14     58% -23   30.08 30.15 0    
Jan 19 01:53 NW 18 9 Light Snow CLR 0 -12     56% -21   30.05 30.12 0    
Jan 19 00:53 NNW 14 10 Partly Cloudy FEW041 SCT048 2 -9     59% -16   30.01 30.07     0
Jan 18 23:53 NNW 20 4 Haze BKN032 BKN043 OVC055 6 -4     62% -14   29.97 30.03 0    
Jan 18 23:51 NNW 22 3 Haze BKN032 BKN043 OVC055 7 -2     66% -14   29.97   0    
Jan 18 23:41   1.75 Haze BKN030 OVC045 7 -1     69%     29.96   0    
Jan 18 23:37   1.5 Haze BKN026 OVC045 8 -1     66%     29.95   0    
Jan 18 23:22   1.25 Haze OVC015 10 3     73%     29.94   0    
Jan 18 23:10   0.25 Clear VV010 11 5     76%         0    
Jan 18 22:57   0.75 Light Snow OVC022 16 7     67%         0    
Jan 18 22:55   1.75 Light Snow OVC024 17 6     61%         0    
Jan 18 22:53 W 23 3 Light Snow OVC026 17 6     61% -1   29.88 29.94 0    
Notice The following observation data may not be complete
May 15 07:53 SSW 6 10 Clear CLR   41      %     29.69 29.68      
May 15 04:53 SSE 9 10 Partly Cloudy SCT110 51 38     61%     29.69 29.68      
Notice The following observation data may not be complete
May 14 23:53 Calm 10 Clear CLR   35      %     29.77 29.75      
May 14 16:53 W 18 10 Partly Cloudy SCT120 78 37     23%   77 29.66 29.65      
May 14 13:53 WSW 16 10 Mostly Clear FEW085 76 36     23%   74 29.68 29.67      
May 14 12:53 SW 20 10 Clear and Windy CLR 76 37     24%   74 29.69 29.68      
May 12 12:53 WSW 11 10 Clear CLR 54 17     23%     30.04 30.06      
May 12 09:53 W 10 10 Clear CLR 45 18     34% 40   30.12 30.14      
May 12 08:53 WSW 10 10 Clear CLR 42 18     37% 36   30.12 30.14      
May 12 07:53 W 8 10 Clear CLR 38 19     46% 32   30.13 30.15      
May 11 18:53 NW 20 10 Clear and Windy CLR 42 14     32% 33   29.98 29.99      
May 11 15:53 NW 22 10 Clear and Windy CLR 45 17     32% 37   29.91 29.92      
May 11 13:53   10 Clear CLR 45 17     32%     29.88 29.89 0   0
Jun 10 18:53 WSW 7 10 Clear CLR 68 31     25%     29.82 29.81      
Jun 10 09:53   10 Clear CLR 56 37     49%     29.87 29.86